JS1SZZ-13 Weather Reports


time (UTC)temp
C
wind
direction
speed
KPH
gust
KPH
rain 1hr
cm
rain 24hr
cm
rain mn
cm
humidity
%
barometer
mb
20260502130500 8 0 0.0 0.0 0.00 0.10 0.08 83 1011.4
20260502123501 9 0 0.0 0.0 0.00 0.10 0.08 81 1011.4
20260502122001 9 0 0.0 0.0 0.00 0.10 0.08 80 1011.2
20260502120500 10 0 0.0 0.0 0.00 0.10 0.08 78 1011.0
20260502114959 10 0 0.0 0.0 0.00 0.10 0.08 77 1010.6
20260502111959 11 0 0.0 0.0 0.00 0.10 0.08 72 1010.3
20260502110501 11 0 0.0 0.0 0.00 0.18 0.08 73 1010.2
20260502105000 12 0 0.0 0.0 0.00 0.23 0.08 71 1009.5
20260502103459 12 0 0.0 0.0 0.00 0.36 0.08 69 1009.6
20260502102000 13 0 0.0 0.0 0.00 0.46 0.08 63 1009.2
20260502100500 13 0 0.0 0.0 0.00 0.53 0.08 61 1009.0
20260502090459 17 0 0.0 0.0 0.00 0.69 0.08 46 1008.1
20260502070500 22 0 0.0 0.0 0.00 0.69 0.08 20 1007.1
20260502065001 22 0 0.0 0.0 0.00 0.69 0.08 20 1007.1
20260502063500 22 0 0.0 0.0 0.00 0.69 0.08 20 1007.0
20260502061959 22 0 0.0 0.0 0.00 0.69 0.08 21 1007.0
20260502060501 22 0 0.0 0.0 0.00 0.69 0.08 20 1007.0
20260502055000 22 0 0.0 0.0 0.00 0.69 0.08 21 1006.6
20260502053459 22 0 0.0 0.0 0.00 0.69 0.08 22 1006.5
20260502052000 22 0 0.0 0.0 0.00 0.69 0.08 21 1006.2
20260502050500 22 0 0.0 0.0 0.00 0.69 0.08 22 1006.0
20260502045001 22 0 0.0 0.0 0.00 0.71 0.08 20 1005.9
20260502043500 23 0 0.0 0.0 0.00 0.71 0.08 22 1005.7
20260502041959 22 0 0.0 0.0 0.00 0.71 0.08 27 1005.7
20260502040501 22 0 0.0 0.0 0.00 0.71 0.08 25 1005.6
20260502035000 22 0 0.0 0.0 0.00 0.71 0.08 22 1005.3
20260502033500 22 0 0.0 0.0 0.00 0.74 0.08 23 1005.3
20260502031959 22 0 0.0 0.0 0.00 0.74 0.08 23 1004.9
20260502024959 21 0 0.0 0.0 0.00 0.74 0.08 22 1004.6
20260502023501 22 0 0.0 0.0 0.00 0.74 0.08 23 1004.4
20260502022000 21 0 0.0 0.0 0.00 0.74 0.08 22 1003.8
20260502020500 21 0 0.0 0.0 0.00 0.74 0.08 20 1003.7
20260502015000 21 0 0.0 0.0 0.00 0.74 0.08 24 1004.1
20260502013500 21 0 0.0 0.0 0.00 0.74 0.08 22 1004.0
20260502011959 21 0 0.0 0.0 0.00 0.74 0.08 26 1004.0
20260502010501 20 0 0.0 0.0 0.00 0.74 0.08 27 1004.0
20260502005000 20 0 0.0 0.0 0.00 0.79 0.08 29 1003.7
20260502003500 19 0 0.0 0.0 0.00 0.84 0.08 28 1003.7
20260502001959 20 0 0.0 0.0 0.00 0.94 0.08 30 1003.5
20260502000501 19 0 0.0 0.0 0.00 1.04 0.08 29 1003.2
20260501235000 19 0 0.0 0.0 0.00 1.12 0.08 28 1003.1
20260501233500 19 0 0.0 0.0 0.00 1.19 0.08 30 1003.1
20260501231959 19 0 0.0 0.0 0.00 1.30 0.08 34 1002.7
20260501230459 18 0 0.0 0.0 0.00 1.40 0.08 31 1002.5
20260501224959 18 0 0.0 0.0 0.00 1.52 0.08 45 1002.4
20260501223500 17 0 0.0 0.0 0.00 1.63 0.08 44 1002.2
20260501222000 16 0 0.0 0.0 0.00 1.73 0.08 49 1001.9
20260501220459 15 0 0.0 0.0 0.00 1.85 0.08 58 1001.8
20260501215000 14 0 0.0 0.0 0.00 1.93 0.08 61 1001.6
20260501213500 13 0 0.0 0.0 0.00 2.11 0.08 59 1001.1
20260501211959 13 0 0.0 0.0 0.00 2.39 0.08 58 1000.9
20260501210459 13 0 0.0 0.0 0.00 2.51 0.08 48 1000.7
20260501205001 12 0 0.0 0.0 0.00 2.59 0.08 48 1000.4
20260501203500 11 0 0.0 0.0 0.00 2.62 0.08 52 999.8
20260501201959 11 0 0.0 0.0 0.00 2.67 0.08 57 999.4
20260501200459 10 0 0.0 0.0 0.00 2.69 0.08 69 999.1
20260501195000 8 0 0.0 0.0 0.00 2.72 0.08 94 998.5
20260501193500 8 0 0.0 0.0 0.00 2.72 0.08 96 998.8
20260501191959 8 0 0.0 0.0 0.00 2.77 0.08 96 998.9
20260501190501 8 0 0.0 0.0 0.03 2.82 0.08 95 998.4
20260501185000 8 0 0.0 0.0 0.05 2.87 0.08 96 998.0
20260501183500 8 0 0.0 0.0 0.05 2.92 0.08 96 998.2
20260501181959 8 0 0.0 0.0 0.05 3.00 0.08 96 997.6
20260501180501 8 0 0.0 0.0 0.05 3.00 0.05 97 997.5
20260501175000 7 0 0.0 0.0 0.03 3.02 0.03 97 997.2
20260501173459 7 0 0.0 0.0 0.03 3.07 0.03 97 996.7
20260501172000 8 0 0.0 0.0 0.03 3.10 0.03 97 996.4
20260501170500 8 0 0.0 0.0 0.00 3.10 0.00 96 996.4
20260501164959 8 0 0.0 0.0 0.00 3.15 0.00 96 995.9
20260501163459 8 0 0.0 0.0 0.00 3.15 0.00 96 995.6
20260501161959 8 0 0.0 0.0 0.00 3.17 0.00 96 995.5
20260501160459 8 0 0.0 0.0 0.00 3.20 0.00 96 995.1
20260501155000 8 0 0.0 0.0 0.00 3.23 0.00 95 995.2
20260501153500 8 0 0.0 0.0 0.00 3.23 0.00 95 994.9
20260501152000 8 0 0.0 0.0 0.00 3.23 0.00 95 994.8
20260501150500 8 0 0.0 0.0 0.00 3.23 0.00 95 994.9
20260501144959 8 0 0.0 0.0 0.00 3.23 3.23 94 994.9
20260501143501 8 0 0.0 0.0 0.00 3.23 3.23 94 994.9